Regional Weather Roundup
Issued by NWS

Home | Current Version | Previous Version | Graphics & Text | Print | Product List | Glossary On
Versions: 1 2 3 4 5 6 7 8 9 10 11 12 13 14 15 16 17 18 19 20 21 22 23 24 25 26 27 28 29 30 31 32 33 34 35 36
000
ASUS45 KBOU 212210
RWRCO

WEATHER ROUNDUP FOR COLORADO
NATIONAL WEATHER SERVICE PUEBLO CO
300 PM MST WED FEB 21 2018

NOTE: "FAIR" INDICATES FEW OR NO CLOUDS BELOW 12000 FEET WITH NO
SIGNIFICANT WEATHER AND/OR OBSTRUCTIONS TO VISIBILITY.

COZ001>005-013-030-031-212300-
...NORTHWEST COLORADO...

CITY           SKY/WX    TMP DP  RH WIND       PRES   REMARKS
CRAIG          CLOUDY    22   7  52 CALM      30.05F
HAYDEN         FAIR      17   9  70 SW3       30.05F
MEEKER         FAIR      30   5  34 VRB3      30.01F
RABBIT EARS PA NOT AVBL
STEAMBOAT SPGS PTSUNNY   24   2  38 CALM      30.02S
WALDEN         PTSUNNY   21   0  39 SW5       29.98S WCI  15
$$

COZ006>008-011-212300-
...WEST CENTRAL VALLEYS...

CITY           SKY/WX    TMP DP  RH WIND       PRES   REMARKS
GRAND JUNCTION FAIR      36   8  31 W6        30.04F
MONTROSE       FAIR      31  16  54 W10       30.03F WCI  22
EAGLE          FAIR      30   6  36 CALM      30.01F
RIFLE          FAIR      32   7  35 CALM      30.04F
DELTA          NOT AVBL
NUCLA          CLOUDY    36  10  35 NW5       30.03S
$$

COZ017>023-064>068-212300-
...SOUTHWEST COLORADO...

CITY           SKY/WX    TMP DP  RH WIND       PRES   REMARKS
DURANGO        PTSUNNY   33  20  58 SE9       30.01F WCI  25
CORTEZ         PTSUNNY   40  15  36 S12G18    30.00F
PAGOSA SPRINGS FLURRIES  31  15  51 S3        30.03S
TELLURIDE      PTSUNNY   27   3  36 S7G21     29.95S WCI  19
WOLF CREEK PAS CLOUDY    10   9  92 S17G26    29.99R WCI  -7
$$

COZ009-010-012-014-032>034-037-058>063-212300-
...CENTRAL COLORADO...

CITY           SKY/WX    TMP DP  RH WIND       PRES   REMARKS
ASPEN          FAIR      27   4  37 N7        29.94F WCI  19
BUENA VISTA    FAIR      33   3  27 SE20G25   29.94F WCI  22
COPPER MTN     FAIR      19  -8  30 S17G23    29.88S WCI   4
BERTHOUD PASS  FAIR       9  -2  61 SW7G16    29.87R WCI  -3
COTTONWOOD PAS FAIR      32  -2  23 SW5       29.92S WCI  27
GUNNISON       FAIR      29   8  41 CALM      29.95F
KREMMLING      FAIR      27   7  43 CALM      30.01F
LEADVILLE      FAIR      20  -3  36 S14       29.89S WCI   7
MONARCH PASS   FAIR      14  10  85 SW18G26   30.01S WCI  -3
SALIDA         FAIR      36   5  28 S13G23    30.04F
SUNLIGHT       CLOUDY    12   5  73 SW3       29.95S
WILKERSON PASS FAIR      21   3  45 S6        29.94S WCI  14
$$

COZ069>075-212300-
...SAN LUIS VALLEY/SANGRE DE CRISTO MOUNTAINS...

CITY           SKY/WX    TMP DP  RH WIND       PRES   REMARKS
ALAMOSA        FAIR      38  11  32 SW15G25   29.97F
DEL NORTE      FAIR      31   6  34 NE5       29.98F WCI  27
LA VETA PASS   FAIR      30  12  47 S14G26    30.08S WCI  20
SAGUACHE       NOT AVBL
$$

COZ035-036-038>040-212300-
...NORTHERN COLORADO FRONT RANGE...

CITY           SKY/WX    TMP DP  RH WIND       PRES   REMARKS
DENVER INTL AP FAIR      20  13  74 N12       30.08F WCI   8
DMNS CITY PARK NOT AVBL
AURORA         MOSUNNY   22  17  80 N12       30.07F WCI  10
FRONT RANGE AP MOSUNNY   27  21  80 N14       30.08F WCI  15
ERIE MUNI ARPT FAIR      19  10  67 N5        30.18F WCI  12
BOULDER MUN AP FAIR      21  12  68 E5        30.12R WCI  15
CENTENNIAL     FAIR      25  17  72 N13       30.05S WCI  14
BROOMFIELD     MOSUNNY   19  12  73 N10       30.09F WCI   8
LOVELAND       FAIR      26  10  50 E8        30.15S WCI  18
LONGMONT       FAIR      26  11  51 NE3       30.16S
$$

COZ041-046-047-076>085-087-088-212300-
...PIKES PEAK/PALMER DIVIDE AND SOUTHERN FOOTHILLS...

CITY           SKY/WX    TMP DP  RH WIND       PRES   REMARKS
COLO. SPRINGS  FAIR      25  13  60 S10       30.08F WCI  15
A. F. ACADEMY  MOSUNNY   24  12  60 S14       30.04F WCI  12
SCHRIEVER AFB  NOT AVBL
CHEYENNE MTN   NOT AVBL
ELLICOTT         N/A    N/A N/A N/A S8        30.08F
FALCON         FAIR      25  10  53 MISG      30.06F
FORT CARSON    FAIR      27  12  53 SE13      30.08F WCI  16
LIMON          FAIR      29   7  39 S15G23    30.11F WCI  18
MONUMENT HILL  FAIR      25  14  63 S16G23    30.02S WCI  12
CANON CITY     SUNNY     32  14  47 CALM      30.09F
WALSENBURG     FAIR      37  14  38 E10       30.05F
TRINIDAD       FAIR      37  11  34 NE8       30.05F
$$

COZ042>045-048>051-090-091-212300-
...NORTHEAST COLORADO...

CITY           SKY/WX    TMP DP  RH WIND       PRES   REMARKS
GREELEY ARPT   FAIR      18  11  74 N8        30.16F WCI   8
AKRON          FAIR      28  12  51 SE18G25   30.16F WCI  15
BURLINGTON     CLOUDY    28  10  46 SE17      30.22F WCI  16
WRAY           FAIR      30  10  43 SE16      30.27F WCI  19
YUMA           NOT AVBL
STERLING       FAIR      32  14  47 S14       30.18F WCI  22
HOLYOKE        FAIR      32  12  43 S17       30.27S WCI  21
FORT MORGAN    FAIR      33  12  41 SE12G17   30.14F WCI  24
$$

COZ086-089-092>099-212300-
...SOUTHEAST COLORADO...

CITY           SKY/WX    TMP DP  RH WIND       PRES   REMARKS
PUEBLO         FAIR      30  11  45 SE5       30.14F WCI  25
LA JUNTA       FAIR      31   5  33 E13       30.17F WCI  21
LAMAR          CLOUDY    26  12  55 SE10      30.23F WCI  16
SPRINGFIELD      N/A     25  15  66 SE10      30.20F WCI  15
$$





USA.gov is the U.S. government's official web portal to all federal, state and local government web resources and services.